TimeCST,TemperatureF,Dew PointF,Humidity,Sea Level PressureIn,VisibilityMPH,Wind Direction,Wind SpeedMPH,Gust SpeedMPH,PrecipitationIn,Events,Conditions,WindDirDegrees,DateUTC
12:53 AM,41.0,37.0,86,30.11,10.0,SSE,3.5,-,N/A,,Clear,160,2012-12-01 06:53:00
1:53 AM,46.0,41.0,83,30.12,10.0,SSE,3.5,-,N/A,,Clear,150,2012-12-01 07:53:00
2:53 AM,42.1,39.9,92,30.12,8.0,SSE,4.6,-,N/A,,Clear,160,2012-12-01 08:53:00
3:53 AM,44.1,42.1,93,30.11,7.0,SSE,5.8,-,N/A,,Clear,160,2012-12-01 09:53:00
4:53 AM,39.0,37.0,93,30.12,2.5,Calm,Calm,-,N/A,,Clear,0,2012-12-01 10:53:00
5:13 AM,42.8,42.8,100,30.12,2.5,Calm,Calm,-,N/A,,Mostly Cloudy,0,2012-12-01 11:13:00
5:26 AM,41.0,39.2,93,30.12,2.5,SE,4.6,-,N/A,,Scattered Clouds,140,2012-12-01 11:26:00
5:33 AM,42.8,39.2,87,30.12,4.0,SSE,3.5,-,N/A,,Partly Cloudy,150,2012-12-01 11:33:00
6:53 AM,50.0,46.0,86,30.11,9.0,SSE,6.9,-,N/A,,Overcast,150,2012-12-01 12:53:00
7:53 AM,52.0,46.9,83,30.10,10.0,SSE,5.8,-,N/A,,Overcast,160,2012-12-01 13:53:00
8:53 AM,54.0,48.0,80,30.10,10.0,SSE,8.1,-,N/A,,Clear,160,2012-12-01 14:53:00
9:53 AM,57.0,48.9,74,30.10,10.0,SSE,6.9,-,N/A,,Overcast,160,2012-12-01 15:53:00
10:53 AM,63.0,51.1,65,30.07,10.0,SSE,9.2,-,N/A,,Partly Cloudy,150,2012-12-01 16:53:00
11:53 AM,64.0,51.1,63,30.03,10.0,South,11.5,-,N/A,,Clear,170,2012-12-01 17:53:00
1:53 PM,69.1,54.0,58,29.98,10.0,South,10.4,21.9,N/A,,Clear,170,2012-12-01 19:53:00
4:53 PM,63.0,51.1,65,29.97,10.0,SSE,13.8,23.0,N/A,,Mostly Cloudy,160,2012-12-01 22:53:00
5:53 PM,61.0,51.1,70,29.98,10.0,SSE,11.5,20.7,N/A,,Overcast,160,2012-12-01 23:53:00
7:53 PM,57.9,50.0,75,29.99,10.0,SSE,3.5,-,N/A,,Mostly Cloudy,150,2012-12-02 01:53:00
8:53 PM,59.0,51.1,75,29.99,10.0,SSE,5.8,-,N/A,,Overcast,150,2012-12-02 02:53:00
9:53 PM,61.0,51.1,70,29.98,10.0,South,6.9,-,N/A,,Overcast,170,2012-12-02 03:53:00
10:53 PM,64.0,51.1,63,29.97,10.0,South,10.4,18.4,N/A,,Overcast,180,2012-12-02 04:53:00
11:53 PM,64.9,51.1,61,29.95,10.0,South,12.7,21.9,N/A,,Overcast,190,2012-12-02 05:53:00